This demonstration page uses our WeatherBlox Daily Observations layout. Learn more.

Left ArrowRight Arrow

39.51506, -84.39828

Hourly Observations for June 13, 2015

Temp ( °F °C ) Dew Point ( °F °C ) Humidity (%) Winds ( mph kmh ) Pressure ( in mb ) Visibility ( mi km ) Precip ( " mm )
12:15 am 00:15 undefined N/A N/A N/A undefined N/A N/A N/A N/A
12:35 am 00:35 Clear 69 20.8 65 18.5 87 87 SSW 3 6 29.97 1015 10 16.0934 N/A
12:55 am 00:55 Clear 71 21.6 66 19.1 86 86 SW 3 6 29.97 1015 10 16.0934 N/A
1:15 am 01:15 undefined N/A N/A N/A undefined N/A N/A N/A N/A
1:35 am 01:35 undefined N/A N/A N/A undefined N/A N/A N/A N/A
1:55 am 01:55 undefined N/A N/A N/A undefined N/A N/A N/A N/A
2:15 am 02:15 undefined 72 22.1 68 19.8 87 87 N N/A 29.97 1015 N/A N/A
2:35 am 02:35 Partly Cloudy with Mist and Fog 69 20.8 66 18.7 88 88 N N/A 29.97 1015 5 8.0467 N/A
2:55 am 02:55 Partly Cloudy 72 22.3 69 20.3 89 89 SSW 5 7 29.97 1015 10 16.0934 N/A
3:15 am 03:15 Clear 72 22.3 68 20.1 87 87 N N/A 29.97 1015 10 16.0934 N/A
3:35 am 03:35 Clear with Mist and Fog 69 20.8 66 18.7 88 88 N N/A 29.97 1015 5 8.0467 N/A
3:55 am 03:55 Clear with Mist and Fog 69 20.8 66 19 90 90 N N/A 29.97 1015 2.5 4.02335 N/A
4:15 am 04:15 Clear with Mist and Fog 69 20.8 66 19 90 90 N N/A 29.97 1015 2.5 4.02335 N/A
4:35 am 04:35 Clear with Mist and Fog 69 20.8 66 19 90 90 N N/A 29.97 1015 2 3.21868 N/A
4:55 am 04:55 Clear with Mist and Fog 69 20.8 66 19 90 90 N N/A 29.97 1015 2.5 4.02335 N/A
5:15 am 05:15 Clear with Mist and Fog 69 20.8 66 19 90 90 N N/A 29.97 1015 2.5 4.02335 N/A
5:35 am 05:35 Partly Cloudy with Mist and Fog 69 20.8 66 19 90 90 N N/A 29.97 1015 2.5 4.02335 N/A
5:55 am 05:55 Partly Cloudy with Mist and Fog 69 20.8 66 19.1 90 90 N N/A 29.97 1015 1.75 2.816345 N/A
6:15 am 06:15 Sunny with Mist and Fog 69 20.8 66 19.1 90 90 N N/A 30 1016 2 3.21868 N/A
6:35 am 06:35 Partly Cloudy with Mist and Fog 69 20.8 66 19.1 90 90 N N/A 30 1016 1.5 2.41401 N/A
6:55 am 06:55 Partly Cloudy with Mist and Fog 69 20.8 66 19.1 90 90 N N/A 30 1016 2 3.21868 N/A
7:15 am 07:15 Sunny with Mist and Fog 72 22.1 69 20.6 91 91 N N/A 30 1016 2 3.21868 N/A
7:35 am 07:35 Sunny with Mist and Fog 74 23.6 72 22 91 91 N N/A 30 1016 2.5 4.02335 N/A
7:55 am 07:55 Sunny with Mist and Fog N/A N/A N/A undefined N/A N/A 5 8.0467 N/A
8:15 am 08:15 undefined N/A N/A N/A SW 5 7 N/A N/A N/A
8:35 am 08:35 Sunny 76 24.6 71 21.9 85 85 SW 6 9 30.03 1017 7 11.26538 N/A
8:55 am 08:55 Sunny 77 25.1 72 22.3 85 85 SW 6 9 30.03 1017 10 16.0934 N/A
9:15 am 09:15 Sunny 77 25.1 72 22 83 83 SW 7 11 30.03 1017 10 16.0934 N/A
9:35 am 09:35 Sunny 80 26.5 73 22.9 81 81 WSW 7 11 30.03 1017 10 16.0934 N/A
9:55 am 09:55 Sunny 80 26.5 72 22.3 78 78 WSW 8 13 30.03 1017 10 16.0934 N/A
10:15 am 10:15 Sunny 81 27.3 73 22.6 76 76 WSW 7 11 30.03 1017 10 16.0934 N/A
10:35 am 10:35 Partly Cloudy 82 28 73 22.9 74 74 SW 9 15 30.03 1017 10 16.0934 N/A
10:55 am 10:55 Partly Cloudy 82 28 72 22.4 72 72 SW 9 15 30.03 1017 10 16.0934 N/A
11:15 am 11:15 Partly Cloudy 83 28.6 73 22.7 70 70 WSW 6 9 30 1016 10 16.0934 N/A
11:35 am 11:35 Partly Cloudy 86 29.8 74 23.6 69 69 SW 7 11 30 1016 10 16.0934 N/A
11:55 am 11:55 Partly Cloudy 86 30.1 75 24 70 70 SSW 8 13 30 1016 10 16.0934 N/A
12:15 pm 12:15 Partly Cloudy 87 30.5 76 24.4 70 70 SSW 5 7 30 1016 10 16.0934 N/A
12:35 pm 12:35 Partly Cloudy 90 32.1 77 24.9 66 66 SW 9 15 30 1016 10 16.0934 N/A
12:55 pm 12:55 Mostly Cloudy 87 30.7 74 23.4 65 65 WSW 6 9 30 1016 10 16.0934 N/A
1:15 pm 13:15 Partly Cloudy 90 32.1 76 24.4 64 64 SW 8 13 30 1016 10 16.0934 N/A
1:35 pm 13:35 Partly Cloudy 89 31.6 75 23.9 64 64 WSW 9 15 30 1016 10 16.0934 N/A
1:55 pm 13:55 Mostly Cloudy 90 32.1 75 23.7 61 61 N N/A 29.97 1015 10 16.0934 N/A
2:15 pm 14:15 Mostly Cloudy 87 30.7 73 22.7 62 62 WSW 9 15 29.97 1015 10 16.0934 N/A
2:35 pm 14:35 Mostly Cloudy 90 32.1 73 23 59 59 SW 10 17 29.97 1015 10 16.0934 N/A
2:55 pm 14:55 Partly Cloudy 90 32.1 72 22.1 55 55 SW 12 19 29.97 1015 10 16.0934 N/A
3:15 pm 15:15 Partly Cloudy 90 32.1 72 22.3 56 56 SW 13 20 29.94 1014 10 16.0934 N/A
3:35 pm 15:35 Partly Cloudy 90 32.1 71 21.6 54 54 SSW 14 22 29.94 1014 10 16.0934 N/A
3:55 pm 15:55 Sunny 90 32.1 71 21.9 55 55 SW 13 20 29.94 1014 10 16.0934 N/A
4:15 pm 16:15 Partly Cloudy 90 32.1 72 22.3 56 56 SSW 12 19 29.94 1014 10 16.0934 N/A
4:35 pm 16:35 Partly Cloudy 90 32.1 70 21.1 52 52 WSW 14 22 29.94 1014 10 16.0934 N/A
4:55 pm 16:55 Sunny 90 32.1 69 20.3 50 50 SW 14 22 29.94 1014 10 16.0934 N/A
5:15 pm 17:15 Sunny 90 32.1 69 20.4 50 50 SW 13 20 29.94 1014 10 16.0934 N/A
5:35 pm 17:35 Sunny 90 32.1 69 20.3 50 50 SW 14 22 29.94 1014 10 16.0934 N/A
5:55 pm 17:55 Sunny 90 32.1 69 20.3 50 50 WSW 12 19 29.94 1014 10 16.0934 N/A
6:15 pm 18:15 Sunny 90 32.1 68 20.2 49 49 SW 13 20 29.94 1014 10 16.0934 N/A
6:35 pm 18:35 Sunny 90 32.1 68 20 49 49 SW 14 22 29.94 1014 10 16.0934 N/A
6:55 pm 18:55 Sunny 90 32.1 69 20.4 50 50 SW 12 19 29.94 1014 10 16.0934 N/A
7:15 pm 19:15 Sunny 90 32.1 69 20.8 51 51 SW 10 17 29.94 1014 N/A N/A
7:35 pm 19:35 Sunny 90 32.1 69 20.5 50 50 SW 12 19 29.94 1014 10 16.0934 N/A
7:55 pm 19:55 Sunny 89 31.6 69 20.8 53 53 WSW 10 17 29.94 1014 10 16.0934 N/A
8:15 pm 20:15 Sunny 87 30.3 68 19.8 53 53 SW 9 15 29.94 1014 10 16.0934 N/A
8:35 pm 20:35 Sunny 83 28.6 67 19.3 57 57 SW 7 11 29.94 1014 10 16.0934 N/A
8:55 pm 20:55 Sunny 82 27.9 68 20 62 62 SW 6 9 30 1016 10 16.0934 N/A
9:15 pm 21:15 Clear 80 26.7 68 20.1 67 67 WSW 5 7 30 1016 10 16.0934 N/A
9:35 pm 21:35 Clear 80 26.5 69 20.4 69 69 WSW 5 7 30 1016 10 16.0934 N/A
9:55 pm 21:55 Clear 80 26.5 69 20.7 71 71 WSW 5 7 30.03 1017 10 16.0934 N/A
10:15 pm 22:15 Clear 80 26.5 69 20.6 70 70 SW 6 9 30.03 1017 10 16.0934 N/A
10:35 pm 22:35 Clear 80 26.5 69 20.4 69 69 SW 6 9 30.03 1017 10 16.0934 N/A
10:55 pm 22:55 Clear 77 25.1 68 20.1 74 74 SW 5 7 30.03 1017 10 16.0934 N/A
11:15 pm 23:15 Clear 77 25.1 70 21.2 79 79 WSW 3 6 30.03 1017 10 16.0934 N/A
11:35 pm 23:35 Mostly Cloudy 77 25.1 70 21.1 79 79 SW 6 9 30.03 1017 10 16.0934 N/A
11:55 pm 23:55 Partly Cloudy 80 26.5 70 21.3 73 73 SW 8 13 30.03 1017 10 16.0934 N/A

Powered by AerisWeather